TimeCDT,TemperatureF,Dew PointF,Humidity,Sea Level PressureIn,VisibilityMPH,Wind Direction,Wind SpeedMPH,Gust SpeedMPH,PrecipitationIn,Events,Conditions,WindDirDegrees,DateUTC
12:15 AM,75.4,72.3,90,30.14,10.0,Calm,Calm,-,N/A,,Clear,0,2013-05-25 05:15:00
12:35 AM,74.7,72.3,92,30.14,10.0,Calm,Calm,-,N/A,,Clear,0,2013-05-25 05:35:00
12:55 AM,73.9,72.0,93,30.13,10.0,Calm,Calm,-,N/A,,Clear,0,2013-05-25 05:55:00
1:15 AM,73.4,71.4,93,30.13,10.0,Calm,Calm,-,N/A,,Clear,0,2013-05-25 06:15:00
1:35 AM,72.5,70.7,94,30.12,10.0,Calm,Calm,-,N/A,,Clear,0,2013-05-25 06:35:00
1:55 AM,71.6,70.3,96,30.12,10.0,Calm,Calm,-,N/A,,Scattered Clouds,0,2013-05-25 06:55:00
2:15 AM,72.7,71.4,96,30.12,10.0,Calm,Calm,-,N/A,,Overcast,0,2013-05-25 07:15:00
2:35 AM,77.4,72.3,84,30.12,10.0,NE,5.8,-,N/A,,Mostly Cloudy,40,2013-05-25 07:35:00
2:55 AM,78.6,71.8,79,30.12,10.0,NNE,4.6,-,N/A,,Mostly Cloudy,20,2013-05-25 07:55:00
3:15 AM,78.1,71.6,80,30.12,10.0,NE,5.8,-,N/A,,Scattered Clouds,40,2013-05-25 08:15:00
3:35 AM,78.6,71.6,79,30.12,10.0,NE,4.6,-,N/A,,Mostly Cloudy,40,2013-05-25 08:35:00
3:55 AM,79.0,72.5,80,30.12,10.0,ENE,3.5,-,N/A,,Overcast,60,2013-05-25 08:55:00
4:15 AM,79.2,72.9,81,30.13,10.0,NE,3.5,-,N/A,,Overcast,40,2013-05-25 09:15:00
4:35 AM,79.0,71.8,78,30.14,10.0,NE,3.5,-,N/A,,Overcast,40,2013-05-25 09:35:00
4:55 AM,78.3,71.1,78,30.14,10.0,NE,4.6,-,N/A,,Mostly Cloudy,40,2013-05-25 09:55:00
5:15 AM,78.8,70.2,75,30.14,10.0,NE,6.9,-,N/A,,Mostly Cloudy,50,2013-05-25 10:15:00
5:35 AM,78.8,68.2,70,30.14,10.0,ENE,6.9,-,N/A,,Mostly Cloudy,60,2013-05-25 10:35:00
5:55 AM,78.3,68.5,72,30.15,10.0,ENE,5.8,-,N/A,,Scattered Clouds,60,2013-05-25 10:55:00
6:15 AM,77.9,67.1,69,30.16,10.0,ENE,4.6,-,N/A,,Mostly Cloudy,60,2013-05-25 11:15:00
6:35 AM,78.1,67.1,69,30.17,10.0,ENE,6.9,-,N/A,,Overcast,60,2013-05-25 11:35:00
6:55 AM,78.3,68.2,71,30.17,10.0,ENE,6.9,-,N/A,,Scattered Clouds,60,2013-05-25 11:55:00
7:15 AM,79.5,68.0,68,30.17,10.0,ENE,5.8,-,N/A,,Clear,60,2013-05-25 12:15:00
7:35 AM,80.2,66.7,63,30.18,10.0,ENE,8.1,-,N/A,,Clear,60,2013-05-25 12:35:00
7:55 AM,81.1,67.1,62,30.18,10.0,NE,10.4,-,N/A,,Clear,50,2013-05-25 12:55:00
8:15 AM,81.5,67.1,61,30.19,10.0,NE,10.4,-,N/A,,Clear,50,2013-05-25 13:15:00
8:35 AM,81.9,66.9,60,30.20,10.0,ENE,9.2,17.3,N/A,,Clear,60,2013-05-25 13:35:00
8:55 AM,82.6,66.4,58,30.20,10.0,NE,11.5,17.3,N/A,,Clear,50,2013-05-25 13:55:00
9:15 AM,82.9,66.2,57,30.20,10.0,ENE,10.4,-,N/A,,Clear,70,2013-05-25 14:15:00
9:35 AM,83.5,65.3,54,30.20,10.0,NE,12.7,-,N/A,,Clear,40,2013-05-25 14:35:00
9:55 AM,84.2,65.7,54,30.20,10.0,ENE,11.5,16.1,N/A,,Clear,70,2013-05-25 14:55:00
10:15 AM,84.6,66.2,54,30.20,10.0,NE,9.2,18.4,N/A,,Clear,40,2013-05-25 15:15:00
10:35 AM,84.4,68.0,58,30.20,10.0,NE,11.5,16.1,N/A,,Clear,40,2013-05-25 15:35:00
10:55 AM,85.3,67.3,55,30.21,10.0,ENE,9.2,-,N/A,,Clear,60,2013-05-25 15:55:00
11:15 AM,85.3,66.2,53,30.21,10.0,ENE,10.4,16.1,N/A,,Clear,60,2013-05-25 16:15:00
11:35 AM,85.6,66.4,52,30.21,10.0,East,9.2,-,N/A,,Scattered Clouds,80,2013-05-25 16:35:00
11:55 AM,85.8,66.6,52,30.21,10.0,ENE,11.5,-,N/A,,Scattered Clouds,60,2013-05-25 16:55:00
12:15 PM,85.8,67.5,54,30.20,10.0,East,12.7,17.3,N/A,,Clear,90,2013-05-25 17:15:00
12:35 PM,86.0,66.6,52,30.20,10.0,East,11.5,16.1,N/A,,Clear,90,2013-05-25 17:35:00
12:55 PM,85.5,66.2,52,30.20,10.0,ENE,10.4,17.3,N/A,,Clear,70,2013-05-25 17:55:00
1:15 PM,85.3,66.6,53,30.20,10.0,East,11.5,17.3,N/A,,Clear,80,2013-05-25 18:15:00
1:35 PM,86.0,67.3,53,30.20,10.0,East,11.5,-,N/A,,Clear,90,2013-05-25 18:35:00
1:55 PM,85.8,68.4,56,30.18,10.0,ENE,11.5,-,N/A,,Clear,60,2013-05-25 18:55:00
2:15 PM,85.8,68.5,56,30.18,10.0,ENE,10.4,16.1,N/A,,Clear,70,2013-05-25 19:15:00
2:35 PM,85.8,68.7,56,30.18,10.0,East,10.4,17.3,N/A,,Clear,80,2013-05-25 19:35:00
2:55 PM,86.0,69.1,57,30.17,10.0,East,11.5,-,N/A,,Clear,100,2013-05-25 19:55:00
3:15 PM,86.2,68.9,56,30.16,10.0,East,10.4,18.4,N/A,,Clear,80,2013-05-25 20:15:00
3:35 PM,86.4,69.1,56,30.17,10.0,East,8.1,16.1,N/A,,Clear,90,2013-05-25 20:35:00
3:55 PM,85.8,69.8,59,30.16,10.0,East,9.2,-,N/A,,Scattered Clouds,80,2013-05-25 20:55:00
4:15 PM,85.5,66.4,53,30.16,10.0,East,9.2,-,N/A,,Clear,80,2013-05-25 21:15:00
4:35 PM,85.8,65.1,50,30.15,10.0,East,9.2,-,N/A,,Clear,90,2013-05-25 21:35:00
4:55 PM,86.4,63.5,46,30.15,10.0,East,9.2,-,N/A,,Clear,100,2013-05-25 21:55:00
5:15 PM,85.1,62.2,46,30.15,10.0,East,8.1,-,N/A,,Clear,90,2013-05-25 22:15:00
5:35 PM,84.9,63.3,48,30.15,10.0,East,6.9,-,N/A,,Clear,90,2013-05-25 22:35:00
5:55 PM,84.4,63.7,50,30.15,10.0,East,9.2,-,N/A,,Clear,100,2013-05-25 22:55:00
6:15 PM,82.6,64.2,54,30.14,10.0,East,5.8,-,N/A,,Clear,90,2013-05-25 23:15:00
6:35 PM,81.9,64.6,56,30.14,10.0,East,5.8,-,N/A,,Clear,100,2013-05-25 23:35:00
6:55 PM,81.3,64.6,57,30.13,10.0,East,5.8,-,N/A,,Clear,90,2013-05-25 23:55:00
7:15 PM,80.1,64.8,59,30.13,10.0,East,3.5,-,N/A,,Clear,100,2013-05-26 00:15:00
7:35 PM,79.3,64.8,61,30.14,10.0,East,4.6,-,N/A,,Clear,90,2013-05-26 00:35:00
7:55 PM,78.8,64.4,61,30.14,10.0,East,3.5,-,N/A,,Clear,90,2013-05-26 00:55:00
8:15 PM,78.6,64.0,61,30.14,10.0,East,3.5,-,N/A,,Clear,80,2013-05-26 01:15:00
8:35 PM,78.3,64.9,63,30.14,10.0,East,3.5,-,N/A,,Clear,100,2013-05-26 01:35:00
8:55 PM,78.4,65.8,65,30.14,10.0,East,4.6,-,N/A,,Clear,80,2013-05-26 01:55:00
9:15 PM,78.4,67.6,69,30.15,10.0,ENE,3.5,-,N/A,,Clear,70,2013-05-26 02:15:00
9:35 PM,78.3,70.9,78,30.16,10.0,ENE,6.9,-,N/A,,Clear,70,2013-05-26 02:35:00
9:55 PM,78.4,70.7,77,30.16,10.0,ENE,5.8,-,N/A,,Clear,60,2013-05-26 02:55:00
10:15 PM,77.9,70.7,78,30.16,10.0,ENE,5.8,-,N/A,,Clear,60,2013-05-26 03:15:00
10:35 PM,77.4,70.3,79,30.16,10.0,ENE,4.6,-,N/A,,Clear,60,2013-05-26 03:35:00
10:55 PM,77.0,70.7,81,30.16,10.0,ENE,4.6,-,N/A,,Clear,70,2013-05-26 03:55:00
11:15 PM,76.6,70.7,82,30.16,10.0,ENE,4.6,-,N/A,,Clear,70,2013-05-26 04:15:00
11:35 PM,77.0,70.7,81,30.15,10.0,ENE,5.8,-,N/A,,Clear,70,2013-05-26 04:35:00
11:55 PM,76.8,70.3,80,30.15,10.0,ENE,3.5,-,N/A,,Clear,70,2013-05-26 04:55:00